Location: Alta
(39.2070°N, 120.8111°W)
Time: 12:36:15
(UTC+00:00)

DUCHIFAT 1 - Visible Passes

Search period start: 27 March 2023 00:00
Search period end: 06 April 2023 00:00
Orbit: 570 x 585 km, 98.0° (Epoch: 26 March)

Date Brightness Start Highest point End Pass type
(mag) Time Alt. Az. Time Alt. Az. Time Alt. Az.
27 Mar ? 10:44:40 10° NNE 10:45:49 17° NE 10:45:49 17° NE visible
27 Mar ? 12:20:35 10° NNW 12:22:08 16° NW 12:22:08 16° NW visible
28 Mar ? 10:48:49 10° NNE 10:50:15 20° NE 10:50:15 20° NE visible
28 Mar ? 12:25:00 10° NNW 12:26:33 15° NW 12:26:33 15° NW visible
29 Mar ? 10:52:58 10° NNE 10:54:39 22° NE 10:54:39 22° NE visible
29 Mar ? 12:29:25 10° NNW 12:30:57 14° NW 12:30:57 14° NW visible
30 Mar ? 10:57:06 10° NNE 10:59:01 25° NE 10:59:01 25° NE visible
30 Mar ? 12:33:53 10° NW 12:35:19 13° NW 12:35:19 13° NW visible
31 Mar ? 11:01:13 10° NNE 11:03:23 29° NE 11:03:23 29° NE visible
31 Mar ? 12:38:23 10° NW 12:39:40 12° WNW 12:39:40 12° WNW visible
01 Apr ? 11:05:21 10° NNE 11:07:43 32° NE 11:07:43 32° NE visible
01 Apr ? 12:43:00 10° NW 12:44:00 11° WNW 12:44:00 11° WNW visible
02 Apr ? 11:09:27 10° NNE 11:12:02 37° NNE 11:12:02 37° NNE visible
03 Apr ? 11:13:32 10° NNE 11:16:19 42° NNE 11:16:19 42° NNE visible
04 Apr ? 11:17:36 10° NNE 11:20:36 48° NNE 11:20:36 48° NNE visible
05 Apr ? 11:21:41 10° NNE 11:24:50 53° N 11:24:50 53° N visible
